SCP
0 0 0 0 -0 -0 -0 -0 -0 0 0 0 0 0 0 0 0 0 0 0 0 0 0 0 0 0 0 0 0 0 0 0
-0 -0 -0 -0 -0 -0 -0 0 0 0 0 0 0 0 0 0 0 0 0 0 0 0 0 0 0 0 0 0 0 0 0 0
0 0 0 0 0 0 0 0 0 0 0 0 0 0 0 0 0 0 0 0 0 0 0 0 0 0 0 0 0 0 0 0
0 0 0 0 0 0 0 0 0 0 0 0 0 0 0 0 0 0 0 0 0 0 0 0 0 0 0 0 0 0 0 0
0 0 0 0 0 0 0 0 0 0 0 0 0 0 0 0 0 0 0 0 0 0 0 0 0 0 0 0 0 0 0 0
0 0 0 0 0 0 0 0 0 0 0 0 0 0 0 0 0 0 0 0 0 0 0 0 0 0 0 0 0 0 0 0
0 0 0 0 0 0 0 0 0 0 0 0 0 0 0 0 0 0 0 0 0 0 0 0 0 0 0 0 0 0 0 0
0 0 0 0 0 0 0 0 0 0 0 0 0 0 0 0 0 0 0 0 0 0 0 0 0 0 0 0 0 0 0 0
0 0 0 0 0 0 0 0 0 0 0 0 0 0 0 0 0 0 0 0 0 0 0 0 0 0 0 0 0 0 0 0
0 0 0 0 0 0 0 0 0 0 0 0 0 0 0 0 0 0 0 0 0 0 0 0 0 0 0 0 0 0 0 0
0 0 0 0 0 0 0 0 0 0 0 0 0 0 0 0 0 0 0 0 0 0 0 0 0 0 0 0 0 0 0 0
0 0 0 0 0 0 0 0 0 0 0 0 0 0 0 0 0 0 0 0 0 0 0 0 0 0 0 0 0 0 0 0
0 0 0 0 0 0 0 0 0 0 0 0 0 0 0 0 0 0 0 0 0 0 0 0 0 0 0 0 0 0 0 0
0 0 0 0 0 0 0 0 0 0 0 0 0 0 0 0 0 0 0 0 0 0 0 0 0 0 0 0 0 0 0 0
0 0 0 0 0 0 0 0 0 0 0 0 0 0 0 0 0 0 0 0 0 0 0 0 0 0 0 0 0 0 0 0
0 0 0 0 0 0 0 0 0 0 0 0 0 0 0 0 0 0 0 0 0 0 0 0 0 0 0 0 0 0 0 0
-0 -0 0 0 0 0 0 0 0 0 0 0 0 0 0 0 0 0 0 0 0 0 0 0 0 0 0 0 0 0 0 0
-0 -0 -0 0 0 0 0 0 0 0 0 0 0 0 0 0 0 0 0 0 0 0 0 0 0 0 0 0 0 0 0 0
0 0 0 0 0 0 0 0 0 0 0 0 0 0 0 0 0 0 0 0 0 0 0 0 0 0 0 0 0 0 0 0
0 0 0 0 0 0 0 0 0 0 0 0 0 0 0 0 0 0 0 0 0 0 0 0 0 0 0 0 0 0 0 0
Wind_Speed_500mb
32 28 20 18 18 16 14 13 12 11 5 3 2 8 13 15 15 14 13 11 11 10 8 5 3 1 2 2 1 6 9 14
44 39 34 26 23 22 19 18 16 13 9 7 6 4 4 4 5 7 9 11 11 10 8 7 5 3 2 2 6 9 11 13
48 47 44 40 38 34 28 23 21 16 13 12 11 6 2 2 3 3 3 5 7 8 9 7 6 4 1 3 6 10 10 11
45 46 45 43 42 39 33 29 22 17 15 11 8 7 8 6 3 2 4 5 5 6 6 5 4 3 2 3 5 6 7 8
38 39 38 38 37 35 32 29 24 18 13 10 9 8 7 6 6 6 6 6 7 8 7 6 6 6 7 5 3 4 8 9
35 34 34 34 35 34 33 29 26 23 15 9 8 8 9 8 7 7 6 7 7 8 9 9 9 8 7 6 7 8 10 12
28 30 32 32 33 34 35 34 31 27 25 23 18 16 14 14 14 15 14 14 14 14 13 11 11 12 13 10 10 10 13 15
27 28 28 29 29 31 32 33 32 31 28 24 21 18 17 18 19 19 19 19 19 19 18 14 14 11 12 12 9 11 18 19
26 26 26 25 26 27 31 33 33 33 31 27 23 21 20 19 19 20 21 22 23 22 21 20 16 14 10 10 17 16 17 17
27 28 24 24 27 31 31 31 32 33 33 32 30 25 22 21 21 21 21 22 22 23 22 22 20 17 15 14 16 17 18 18
23 25 24 24 30 34 34 31 31 30 29 29 28 27 24 21 20 20 20 20 21 21 22 21 17 14 18 21 21 20 19 17
23 27 29 32 36 36 33 29 30 29 27 27 25 22 21 20 18 16 16 16 18 19 21 20 19 25 25 27 29 25 24 21
31 34 36 38 40 36 33 28 27 26 24 28 26 20 16 17 14 12 13 14 15 15 19 22 25 24 22 24 23 23 23 20
31 37 35 36 40 37 35 32 27 24 22 25 24 20 13 11 9 7 8 10 15 19 21 25 27 27 25 23 21 19 19 20
34 36 39 34 33 34 34 33 31 28 26 26 22 22 17 13 10 9 8 11 14 18 19 21 24 25 25 23 24 24 24 28
44 47 50 46 44 39 39 39 39 39 37 33 31 27 26 24 22 22 22 22 23 23 23 24 28 26 30 30 32 34 35 33
46 51 52 54 56 52 48 50 47 47 47 46 43 41 39 38 37 38 35 38 39 39 38 38 39 36 37 40 42 41 38 35
47 50 53 53 51 47 52 55 57 59 52 50 54 54 53 49 48 47 46 48 48 47 49 48 45 46 45 43 38 35 36 38
52 54 57 62 66 60 57 60 64 65 65 65 61 63 64 61 57 52 54 56 56 53 53 53 49 45 40 34 31 36 44 39
53 57 61 66 68 69 70 69 67 68 70 67 67 69 67 66 63 59 58 58 56 53 50 48 45 40 34 29 41 43 45 38
Wind_Direction_500mb
58 59 59 51 55 57 72 93 102 104 103 99 256 236 245 247 236 233 236 239 235 234 230 227 234 265 316 298 285 216 233 245
69 67 64 67 67 67 58 57 63 58 42 40 52 19 303 269 257 234 215 208 198 197 183 185 179 187 195 248 265 263 265 268
68 64 61 56 53 49 46 42 45 48 50 45 37 16 6 1 329 308 272 246 210 194 186 179 169 170 181 287 285 284 288 285
59 53 51 49 49 48 43 36 30 27 27 33 39 29 13 4 347 257 240 239 228 221 204 187 180 174 190 241 251 269 278 280
53 46 41 38 36 36 35 35 31 21 2 350 345 343 349 353 340 315 295 273 250 243 240 233 225 220 215 216 248 293 295 287
35 30 26 24 23 23 21 18 17 15 6 329 292 288 293 288 279 267 257 253 258 271 271 269 271 268 268 275 274 277 287 285
26 22 20 17 16 15 13 12 10 4 359 355 340 313 294 286 282 281 275 261 242 231 229 235 235 229 232 236 258 276 276 280
17 13 10 7 7 7 6 4 2 360 354 345 337 326 307 295 289 285 278 272 269 265 257 245 237 232 243 251 263 284 282 279
357 359 360 0 1 2 358 356 353 352 348 342 334 324 315 304 288 280 278 274 273 271 271 266 263 256 244 281 288 289 285 286
339 340 341 345 351 350 348 349 349 349 347 343 337 330 319 306 295 285 277 271 267 262 257 246 231 240 272 276 279 277 279 280
339 342 335 332 336 340 342 341 344 344 346 345 339 331 326 317 303 290 280 270 263 257 249 240 245 256 277 283 282 282 281 283
325 329 329 321 320 324 328 328 335 339 343 343 339 337 332 325 316 299 283 269 260 251 245 248 259 277 277 277 279 278 279 276
313 315 317 316 316 317 320 313 324 332 337 343 341 346 355 352 339 324 308 291 274 258 260 265 271 271 266 271 275 290 277 269
320 323 325 319 312 311 313 302 305 314 314 329 327 330 340 356 8 11 335 305 286 278 275 276 273 274 280 271 280 288 290 285
310 312 315 318 311 307 307 295 288 296 298 300 303 300 300 306 309 309 303 291 287 283 279 277 276 274 277 277 279 280 292 297
305 308 313 312 309 307 303 299 290 284 283 282 277 274 276 277 277 275 272 271 270 272 269 274 280 284 278 276 280 280 279 276
308 306 307 306 306 306 303 292 286 280 277 275 271 263 262 266 269 271 270 272 276 276 277 277 280 274 269 270 272 269 269 268
316 317 316 312 305 305 298 291 286 281 276 272 268 266 259 261 265 268 271 271 269 271 276 275 274 275 273 272 263 251 253 260
308 309 310 308 307 306 293 287 282 277 274 271 268 264 261 261 263 267 272 272 272 275 276 274 273 271 269 259 242 243 254 248
309 315 314 311 313 307 298 291 285 278 275 271 267 269 264 261 264 266 274 275 278 278 275 272 269 267 262 239 236 245 249 256
Wind_Speed_850mb
32 28 20 18 18 16 14 13 12 11 5 3 2 8 13 15 15 14 13 11 11 10 8 5 3 1 2 2 1 6 9 14
44 39 34 26 23 22 19 18 16 13 9 7 6 4 4 4 5 7 9 11 11 10 8 7 5 3 2 2 6 9 11 13
48 47 44 40 38 34 28 23 21 16 13 12 11 6 2 2 3 3 3 5 7 8 9 7 6 4 1 3 6 10 10 11
45 46 45 43 42 39 33 29 22 17 15 11 8 7 8 6 3 2 4 5 5 6 6 5 4 3 2 3 5 6 7 8
38 39 38 38 37 35 32 29 24 18 13 10 9 8 7 6 6 6 6 6 7 8 7 6 6 6 7 5 3 4 8 9
35 34 34 34 35 34 33 29 26 23 15 9 8 8 9 8 7 7 6 7 7 8 9 9 9 8 7 6 7 8 10 12
28 30 32 32 33 34 35 34 31 27 25 23 18 16 14 14 14 15 14 14 14 14 13 11 11 12 13 10 10 10 13 15
27 28 28 29 29 31 32 33 32 31 28 24 21 18 17 18 19 19 19 19 19 19 18 14 14 11 12 12 9 11 18 19
26 26 26 25 26 27 31 33 33 33 31 27 23 21 20 19 19 20 21 22 23 22 21 20 16 14 10 10 17 16 17 17
27 28 24 24 27 31 31 31 32 33 33 32 30 25 22 21 21 21 21 22 22 23 22 22 20 17 15 14 16 17 18 18
23 25 24 24 30 34 34 31 31 30 29 29 28 27 24 21 20 20 20 20 21 21 22 21 17 14 18 21 21 20 19 17
23 27 29 32 36 36 33 29 30 29 27 27 25 22 21 20 18 16 16 16 18 19 21 20 19 25 25 27 29 25 24 21
31 34 36 38 40 36 33 28 27 26 24 28 26 20 16 17 14 12 13 14 15 15 19 22 25 24 22 24 23 23 23 20
31 37 35 36 40 37 35 32 27 24 22 25 24 20 13 11 9 7 8 10 15 19 21 25 27 27 25 23 21 19 19 20
34 36 39 34 33 34 34 33 31 28 26 26 22 22 17 13 10 9 8 11 14 18 19 21 24 25 25 23 24 24 24 28
44 47 50 46 44 39 39 39 39 39 37 33 31 27 26 24 22 22 22 22 23 23 23 24 28 26 30 30 32 34 35 33
46 51 52 54 56 52 48 50 47 47 47 46 43 41 39 38 37 38 35 38 39 39 38 38 39 36 37 40 42 41 38 35
47 50 53 53 51 47 52 55 57 59 52 50 54 54 53 49 48 47 46 48 48 47 49 48 45 46 45 43 38 35 36 38
52 54 57 62 66 60 57 60 64 65 65 65 61 63 64 61 57 52 54 56 56 53 53 53 49 45 40 34 31 36 44 39
53 57 61 66 68 69 70 69 67 68 70 67 67 69 67 66 63 59 58 58 56 53 50 48 45 40 34 29 41 43 45 38
Wind_Direction_850mb
58 59 59 51 55 57 72 93 102 104 103 99 256 236 245 247 236 233 236 239 235 234 230 227 234 265 316 298 285 216 233 245
69 67 64 67 67 67 58 57 63 58 42 40 52 19 303 269 257 234 215 208 198 197 183 185 179 187 195 248 265 263 265 268
68 64 61 56 53 49 46 42 45 48 50 45 37 16 6 1 329 308 272 246 210 194 186 179 169 170 181 287 285 284 288 285
59 53 51 49 49 48 43 36 30 27 27 33 39 29 13 4 347 257 240 239 228 221 204 187 180 174 190 241 251 269 278 280
53 46 41 38 36 36 35 35 31 21 2 350 345 343 349 353 340 315 295 273 250 243 240 233 225 220 215 216 248 293 295 287
35 30 26 24 23 23 21 18 17 15 6 329 292 288 293 288 279 267 257 253 258 271 271 269 271 268 268 275 274 277 287 285
26 22 20 17 16 15 13 12 10 4 359 355 340 313 294 286 282 281 275 261 242 231 229 235 235 229 232 236 258 276 276 280
17 13 10 7 7 7 6 4 2 360 354 345 337 326 307 295 289 285 278 272 269 265 257 245 237 232 243 251 263 284 282 279
357 359 360 0 1 2 358 356 353 352 348 342 334 324 315 304 288 280 278 274 273 271 271 266 263 256 244 281 288 289 285 286
339 340 341 345 351 350 348 349 349 349 347 343 337 330 319 306 295 285 277 271 267 262 257 246 231 240 272 276 279 277 279 280
339 342 335 332 336 340 342 341 344 344 346 345 339 331 326 317 303 290 280 270 263 257 249 240 245 256 277 283 282 282 281 283
325 329 329 321 320 324 328 328 335 339 343 343 339 337 332 325 316 299 283 269 260 251 245 248 259 277 277 277 279 278 279 276
313 315 317 316 316 317 320 313 324 332 337 343 341 346 355 352 339 324 308 291 274 258 260 265 271 271 266 271 275 290 277 269
320 323 325 319 312 311 313 302 305 314 314 329 327 330 340 356 8 11 335 305 286 278 275 276 273 274 280 271 280 288 290 285
310 312 315 318 311 307 307 295 288 296 298 300 303 300 300 306 309 309 303 291 287 283 279 277 276 274 277 277 279 280 292 297
305 308 313 312 309 307 303 299 290 284 283 282 277 274 276 277 277 275 272 271 270 272 269 274 280 284 278 276 280 280 279 276
308 306 307 306 306 306 303 292 286 280 277 275 271 263 262 266 269 271 270 272 276 276 277 277 280 274 269 270 272 269 269 268
316 317 316 312 305 305 298 291 286 281 276 272 268 266 259 261 265 268 271 271 269 271 276 275 274 275 273 272 263 251 253 260
308 309 310 308 307 306 293 287 282 277 274 271 268 264 261 261 263 267 272 272 272 275 276 274 273 271 269 259 242 243 254 248
309 315 314 311 313 307 298 291 285 278 275 271 267 269 264 261 264 266 274 275 278 278 275 272 269 267 262 239 236 245 249 256